Zurück zum Katalog

STARLINK-3791

AktivKommunikationVLEO
NORAD 52269·PAYLOAD·🇺🇸 United States

Gestartet Apr 21, 2022 von Cape Canaveral Space Force Station

Loading…

Nächste Überflüge (nächste 24 Stunden)

TLE

AktuellSource: CelesTrak SupGP

Epoche: Sep 14, 2026, 20:58 UTC

1 52269C 22041J   26257.87409722 -.00146670  00000+0 -41958-2 0  2575
2 52269  53.1608 334.2091 0000810  50.7163 356.2003 15.35477420    10

Verfolge STARLINK-3791 in Echtzeit mit AllMySat

Download on the App Store